Weather History for KSYR - August, 2013

Change the Weather History Date:

Monday, August 26, 2013

  Actual Average Record
Temperature  
Mean Temperature 73 °F 68 °F  
Max Temperature 78 °F 79 °F 96 °F (1948)
Min Temperature 67 °F 58 °F 43 °F (1977)
Degree Days  
Heating Degree Days 0 1  
Month to date heating degree days 3 13  
Since 1 June heating degree days 67 82  
Since 1 July heating degree days 6 21  
Cooling Degree Days 8 4  
Month to date cooling degree days 110 145  
Year to date cooling degree days 589 491  
Since 1 June cooling degree days 537 461  
Growing Degree Days 22 (Base 50)    
Moisture  
Dew Point 66 °F    
Average Humidity 83    
Maximum Humidity 97    
Minimum Humidity 68    
Precipitation  
Precipitation 0.51 in 0.11 in 1.64 in (1975)
Month to date precipitation 2.20 3.00  
Year to date precipitation 26.20 24.02  
Snow  
Snow 0.00 in 0.00 in 0.00 in (2002)
Month to date snowfall 0.0 0.0  
Since 1 June snowfall 0.0 0.0  
Since 1 July snowfall 0.0 0.0  
Snow Depth 0.00 in    
Sea Level Pressure  
Sea Level Pressure 29.98 in    
Wind  
Wind Speed 7 mph (WSW)    
Max Wind Speed 13 mph    
Max Gust Speed -    
Visibility 8 miles    
Events Rain    
T = Trace of Precipitation, MM = Missing Value Source: NWS Daily Summary

Daily Weather History Graph

Daily Weather History Graph

Search for Another Location

Airport or City:

Trip Planner

Search our weather history database for the weather conditions in past years. The results will help you decide how hot, cold, wet, or windy it might be!

Date:

Astronomy

Aug. 26, 2013 Rise Set
Actual Time 6:22 AM EDT 7:49 PM EDT
Civil Twilight 5:52 AM EDT 8:18 PM EDT
Nautical Twilight 5:16 AM EDT 8:54 PM EDT
Astronomical Twilight 4:38 AM EDT 9:32 PM EDT
Moon 10:47 PM EDT (8/26) 12:32 PM EDT (8/26)
Length of Visible Light 14h 26m
Length of Day
13h 26m
Waning Gibbous, 67% of the Moon is Illuminated
Aug 26
Waning Gibbous
Aug 28
Last Quarter
Sep 5
New
Sep 12
First Quarter
Sep 19
Full

Hourly Weather History & Observations

Time (EDT) Temp. Dew Point Humidity Pressure Visibility Wind Dir Wind Speed Gust Speed Precip Events Conditions
12:54 AM 70.0 °F 62.1 °F 76% 30.11 in 10.0 mi South 4.6 mph - 0.00 in Rain Light Rain
1:54 AM 69.1 °F 63.0 °F 81% 30.11 in 10.0 mi Calm Calm - 0.01 in Rain Light Rain
2:54 AM 66.9 °F 64.9 °F 93% 30.09 in 10.0 mi SE 4.6 mph - 0.03 in   Overcast
3:54 AM 68.0 °F 63.0 °F 84% 30.07 in 10.0 mi South 3.5 mph - N/A   Overcast
4:54 AM 69.1 °F 61.0 °F 75% 30.05 in 10.0 mi SSW 8.1 mph - 0.00 in   Overcast
5:54 AM 70.0 °F 61.0 °F 73% 30.06 in 10.0 mi SW 6.9 mph - 0.00 in Rain Light Rain
6:54 AM 71.1 °F 61.0 °F 70% 30.05 in 10.0 mi SW 6.9 mph - 0.00 in Rain Light Rain
7:54 AM 73.0 °F 61.0 °F 66% 30.05 in 10.0 mi WSW 10.4 mph - 0.00 in   Overcast
8:54 AM 73.0 °F 63.0 °F 71% 30.05 in 10.0 mi WSW 6.9 mph - 0.00 in   Overcast
9:54 AM 73.9 °F 63.0 °F 68% 30.04 in 10.0 mi WSW 12.7 mph - 0.00 in   Overcast
10:54 AM 75.9 °F 64.9 °F 69% 30.02 in 10.0 mi SW 13.8 mph - 0.00 in Rain Light Rain
1:11 PM 73.4 °F 66.2 °F 78% 30.02 in 10.0 mi WSW 10.4 mph - N/A   Overcast
1:19 PM 73.4 °F 66.2 °F 78% 30.02 in 10.0 mi WSW 11.5 mph - N/A   Overcast
1:54 PM 77.0 °F 66.9 °F 71% 29.98 in 10.0 mi WSW 10.4 mph - N/A   Overcast
2:54 PM 75.9 °F 66.0 °F 71% 29.98 in 10.0 mi West 12.7 mph - N/A   Overcast
3:37 PM 77.0 °F 66.2 °F 69% 29.97 in 10.0 mi WSW 6.9 mph - 0.00 in   Scattered Clouds
3:54 PM 77.0 °F 66.9 °F 71% 29.96 in 10.0 mi WSW 8.1 mph - 0.00 in   Overcast
4:34 PM 75.2 °F 68.0 °F 78% 29.98 in 10.0 mi West 9.2 mph - 0.00 in Rain Light Rain
4:54 PM 75.0 °F 68.0 °F 79% 29.94 in 5.0 mi SW 5.8 mph - 0.00 in Rain Light Rain
5:38 PM 73.4 °F 69.8 °F 88% 29.94 in 5.0 mi SW 5.8 mph - 0.07 in Rain Light Rain
5:54 PM 73.0 °F 70.0 °F 90% 29.93 in 7.0 mi WSW 8.1 mph - 0.07 in   Overcast
6:01 PM 73.4 °F 69.8 °F 88% 29.94 in 7.0 mi WSW 6.9 mph - N/A   Overcast
6:54 PM 73.0 °F 69.1 °F 87% 29.91 in 10.0 mi West 6.9 mph - N/A   Overcast
7:30 PM 71.6 °F 68.0 °F 88% 29.93 in 2.5 mi West 9.2 mph - 0.02 in Rain Rain
7:32 PM 71.6 °F 68.0 °F 88% 29.93 in 3.0 mi West 6.9 mph - 0.03 in Rain Light Rain
7:54 PM 71.1 °F 68.0 °F 90% 29.91 in 6.0 mi Calm Calm - 0.06 in Rain Light Rain
8:18 PM 71.6 °F 69.8 °F 94% 29.92 in 2.5 mi Calm Calm - 0.02 in Rain Rain
8:35 PM 71.6 °F 69.8 °F 94% 29.92 in 2.5 mi WSW 3.5 mph - 0.07 in Rain Rain
8:54 PM 71.1 °F 69.1 °F 93% 29.91 in 2.5 mi WSW 4.6 mph - 0.14 in Rain Rain
9:22 PM 69.8 °F 69.8 °F 100% 29.92 in 3.0 mi WSW 8.1 mph - 0.12 in Rain Rain
9:54 PM 70.0 °F 68.0 °F 93% 29.92 in 5.0 mi NNW 10.4 mph - 0.13 in Rain Light Rain
10:06 PM 69.8 °F 66.2 °F 88% 29.93 in 7.0 mi NNW 5.8 mph - 0.04 in Rain Light Rain
10:40 PM 69.8 °F 66.2 °F 88% 29.93 in 10.0 mi North 5.8 mph - 0.05 in Rain Light Rain
10:54 PM 69.1 °F 66.9 °F 93% 29.91 in 10.0 mi NNW 3.5 mph - 0.05 in Rain Light Rain
11:09 PM 69.8 °F 66.2 °F 88% 29.92 in 10.0 mi Calm Calm - 0.00 in Rain Light Rain
11:45 PM 69.8 °F 66.2 °F 88% 29.93 in 7.0 mi NNW 4.6 mph - 0.01 in Rain Light Rain
11:54 PM 69.1 °F 66.9 °F 93% 29.91 in 10.0 mi NNW 3.5 mph - 0.01 in Rain Light Rain